Hourly Weather Roundup
Issued by NWS Central Illinois

Home | Current Version | Previous Version | Text Only | Print | Product List | Glossary On
Versions: 1 2 3 4 5 6 7 8 9 10 11 12 13 14 15 16 17 18 19 20 21 22 23 24 25 26 27 28 29 30 31 32 33 34 35 36 37 38 39 40 41 42 43 44 45 46 47 48 49 50
000
NZUS43 KILX 251510
HWRILX

AREA WEATHER ROUNDUP
NATIONAL WEATHER SERVICE, LINCOLN IL
1000 AM CDT SAT OCT 25 2014


CITY           SKY/WX    TMP DP  RH WIND       PRES   REMARKS
BLOOMINGTON    PTSUNNY   58  58 100 W8        30.02S FOG
CHAMPAIGN      SUNNY     62  57  83 W9        30.00S
DECATUR        CLOUDY    61  59  93 NW9       30.02R FOG
FLORA          SUNNY     65  58  78 NW6       30.03S
GALESBURG      SUNNY     55  55  99 NW7       30.03S
JACKSONVILLE   NOT AVBL
LACON          CLOUDY    57  55  94 W5        30.00S FOG
LAWRENCEVILLE  MOSUNNY   65  58  78 NW12      30.03R
LITCHFIELD     CLOUDY    61  58  92 W3        30.03F FOG
$$


CITY           SKY/WX    TMP DP  RH WIND       PRES   REMARKS
LINCOLN        CLOUDY    65  60  85 W7        30.01R HAZE
MACOMB         SUNNY     57  57 100 NW9       30.06R
MATTOON        SUNNY     63  58  83 NW8       30.01R
MT CARMEL AP   SUNNY     68  59  73 NW6       30.02S
OLNEY-NOBLE AP SUNNY     63  57  82 NW6       30.03S
PARIS          SUNNY     63  58  83 W3        30.01S
PEORIA         FOG       56  53  90 W6        30.02R VSB 1/2
PONTIAC        CLOUDY    59  57  94 W7        30.00S FOG
RANTOUL        FOG       58  57  97 NW9       30.00R VSB 1/2
ROBINSON       SUNNY     66  59  78 NW6       30.03R
SPRINGFIELD    CLOUDY    65  60  84 W6        30.03R HAZE
TAYLORVILLE    CLOUDY    63  59  88 W8        30.03R FOG
$$

...REGIONAL REPORTS...


CITY           SKY/WX    TMP DP  RH WIND       PRES   REMARKS
CHICAGO O`HARE MOSUNNY   63  51  65 NW12      29.93R
KANKAKEE       PTSUNNY   59  55  88 W12       29.97S FOG
MOLINE         SUNNY     62  50  64 N5        30.02S
MOUNT VERNON   SUNNY     64  57  77 NW5       30.05S
PITTSFIELD     FOG       61  60  95 W6        30.06R VSB 1/4
QUINCY         MOSUNNY   60  59  96 NW5       30.05S FOG
ROCKFORD       SUNNY     62  50  64 NW14      30.00R
$$


CITY           SKY/WX    TMP DP  RH WIND       PRES   REMARKS
BURLINGTON     SUNNY     61  52  72 N6        30.04R
CEDAR RAPIDS   SUNNY     57  50  77 NW10      30.05R
DES MOINES     MOSUNNY   61  45  55 N7        30.10R
KIRKSVILLE     SUNNY     65  54  67 N6        30.08R
OTTUMWA        SUNNY     60  48  64 N7        30.07R
ST LOUIS       MOSUNNY   69  62  78 W3        30.05S
$$


CITY           SKY/WX    TMP DP  RH WIND       PRES   REMARKS
TERRE HAUTE    SUNNY     62  55  77 NW5       30.00S
EVANSVILLE     MOSUNNY   65  57  75 W9        30.04S
INDIANAPOLIS   MOSUNNY   61  54  77 W9        29.98R
LAFAYETTE      SUNNY     59  55  87 W8        29.96F
MADISON        MOSUNNY   60  48  64 W8        29.97R
MILWAUKEE      MOSUNNY   61  46  57 NW10      29.91R
$$





USA.gov is the U.S. government's official web portal to all federal, state and local government web resources and services.